Halifax, Nova Scotia

10:20 AM ADT on May 24, 2017 (GMT -0300)
Halifax International Airport

Weather History for CYHZ - October, 2012

Change the Weather History Date:

Wednesday, October 24, 2012

  Actual Average Record
Temperature  
Mean Temperature 40 °F -  
Max Temperature 47 °F 47 °F 62 °F (1998)
Min Temperature 32 °F 33 °F 30 °F (1997)
Degree Days  
Heating Degree Days 26    
Moisture  
Dew Point 30 °F    
Average Humidity 72    
Maximum Humidity 93    
Minimum Humidity 46    
Precipitation  
Precipitation 0.00 in 0.20 in - ()
Sea Level Pressure  
Sea Level Pressure 30.03 in    
Wind  
Wind Speed 11 mph ()    
Max Wind Speed 18 mph    
Max Gust Speed 23 mph    
Visibility 15.0 miles    
Events      
Averages and records for this station are not official NWS values.
T = Trace of Precipitation, MM = Missing Value Source: Averaged Metar Reports

Daily Weather History Graph

Daily Weather History Graph

Search for Another Location

Airport or City:

Trip Planner

Search our weather history database for the weather conditions in past years. The results will help you decide how hot, cold, wet, or windy it might be!

Date:

Astronomy

Oct. 24, 2012 Rise Set
Actual Time 7:41 AM ADT 6:13 PM ADT
Civil Twilight 7:11 AM ADT 6:43 PM ADT
Nautical Twilight 6:37 AM ADT 7:17 PM ADT
Astronomical Twilight 6:03 AM ADT 7:51 PM ADT
Moon 3:38 PM ADT 2:20 AM ADT
Length of Visible Light 11h 31m
Length of Day
10h 31m
Waxing Gibbous, 75% of the Moon is Illuminated
Oct 24
Waxing Gibbous
Oct 29
Full
Nov 6
Last Quarter
Nov 13
New
Nov 20
First Quarter

Hourly Weather History & Observations

Time (ADT) Temp. Windchill Dew Point Humidity Pressure Visibility Wind Dir Wind Speed Gust Speed Precip Events Conditions
12:00 AM 41.0 °F 32.8 °F 32.0 °F 70% 29.95 in 15.0 mi NNW 16.1 mph - N/A   Mostly Cloudy
1:00 AM 39.2 °F 30.8 °F 30.2 °F 70% 29.96 in 15.0 mi NW 15.0 mph 23.0 mph N/A   Partly Cloudy
2:00 AM 37.4 °F 30.3 °F 30.2 °F 75% 29.98 in 15.0 mi NW 10.4 mph 17.3 mph N/A   Partly Cloudy
3:00 AM 37 °F - 30 °F 68% 29.99 in 15 mi NW 9.2 mph - -  
3:00 AM 37.4 °F 30.3 °F 30.2 °F 75% 29.99 in 15.0 mi NW 10.4 mph - N/A   Clear
4:00 AM 35.6 °F 27.5 °F 30.2 °F 81% 29.98 in 15.0 mi NW 11.5 mph - N/A   Clear
5:00 AM 35.6 °F 28.6 °F 30.2 °F 81% 30.00 in 15.0 mi WNW 9.2 mph - N/A   Clear
6:00 AM 35.6 °F 28.0 °F 30.2 °F 81% 30.01 in 15.0 mi WNW 10.4 mph - N/A   Partly Cloudy
7:00 AM 33.8 °F 28.6 °F 30.2 °F 87% 30.04 in 15.0 mi West 5.8 mph - N/A   Partly Cloudy
8:00 AM 32.0 °F 25.6 °F 30.2 °F 93% 30.04 in 15.0 mi WSW 6.9 mph - N/A   Partly Cloudy
9:00 AM 35.6 °F 30.7 °F 32.0 °F 87% 30.06 in 15.0 mi West 5.8 mph - N/A   Partly Cloudy
10:00 AM 41.0 °F 33.5 °F 32.0 °F 70% 30.05 in 15.0 mi NW 13.8 mph - N/A   Partly Cloudy
11:00 AM 41.0 °F 33.1 °F 32.0 °F 70% 30.04 in 15.0 mi NW 15.0 mph - N/A   Scattered Clouds
12:00 PM 44.6 °F 37.8 °F 33.8 °F 66% 30.03 in 15.0 mi NW 15.0 mph - N/A   Partly Cloudy
1:00 PM 46.4 °F 39.5 °F 32.0 °F 57% 30.01 in 15.0 mi NW 17.3 mph - N/A   Partly Cloudy
2:00 PM 46.4 °F 39.8 °F 32.0 °F 57% 30.01 in 15.0 mi NW 16.1 mph - N/A   Scattered Clouds
3:00 PM 45 °F - 31 °F 46% 30.02 in 15 mi NW 17.3 mph - -   Mostly Cloudy
3:00 PM 44.6 °F 36.9 °F 30.2 °F 57% 30.01 in 15.0 mi NNW 18.4 mph - N/A   Mostly Cloudy
4:00 PM 44.6 °F 37.4 °F 30.2 °F 57% 30.02 in 15.0 mi NNW 16.1 mph - N/A   Scattered Clouds
5:00 PM 44.6 °F 37.8 °F 30.2 °F 57% 30.03 in 15.0 mi NNW 15.0 mph 20.7 mph N/A   Partly Cloudy
6:00 PM 41.0 °F 34.3 °F 28.4 °F 61% 30.05 in 15.0 mi NNW 11.5 mph 18.4 mph N/A   Partly Cloudy
7:00 PM 37.4 °F 32.8 °F 28.4 °F 70% 30.08 in 15.0 mi North 5.8 mph - N/A   Partly Cloudy
7:39 PM 35.6 °F 29.2 °F 28.4 °F 75% 30.09 in 15.0 mi North 8.1 mph - N/A   Partly Cloudy
8:00 PM 35.6 °F 29.2 °F 28.4 °F 75% 30.10 in 15.0 mi North 8.1 mph - N/A   Partly Cloudy
9:00 PM 33.8 °F 27.7 °F 28.4 °F 81% 30.12 in 15.0 mi North 6.9 mph - N/A   Clear
10:00 PM 33.8 °F 27.0 °F 28.4 °F 81% 30.14 in 15.0 mi NNW 8.1 mph - N/A   Clear
11:00 PM 32.0 °F 24.8 °F 28.4 °F 87% 30.14 in 15.0 mi NW 8.1 mph - N/A   Clear